sat.trackr.live / text

‹ back to catalog

GLOBAL-14

NORAD 49469 · 2021-106A

PAYLOAD ACTIVE UNKNOWN

§ Identity

Operator
Country
US
Launch date
2021-11-18
Launch site
RLLB
Launch vehicle
Mass (kg)
RCS (m²)

External: N2YO · Heavens-Above · Gunter

§ Orbital elements

Epoch: 2026-05-25T01:58:56.451648Z

Period
92.94 min
Inclination
42.0044°
Eccentricity
0.0016732
Mean motion
15.49334935 rev/d
Perigee alt
407.3 km
Apogee alt
430.0 km
Semi-major
6,796.8 km
B*
4.1000e-4
RAAN
68.2642°
Arg perigee
227.6412°
Mean anomaly
132.3015°
Rev number
25,454

§ Raw data

GLOBAL-141 49469U 21106A   26145.08259782  .00022912  00000+0  41000-3 0  99942 49469  42.0044  68.2642 0016732 227.6412 132.3015 15.49334935254540

JSON: /api/v1/satellites/49469 · /tle

For live sub-satellite position, see the globe view (requires WebGL).

§ Visibility from observer

Set your observer location to see the next 7 days of passes ≥ 10°. The values pass through the URL so the page stays shareable.

No JS? Fill the form by hand. The geolocation button needs JavaScript.

§ Radio — SatNOGS DB

ModeDescriptionDownlinkUplink
FM Telemetry 400.875 MHz
FM UHF Unknown (inactive) 401.155 MHz

2 transmitters · refreshed weekly from db.satnogs.org